Find Praetorian SDA-618

NORAD ID: 65581 Int'l Des: 2025-203 Owner: SDA Country: US operational
LEOCIRCULARPOLAR

現在のビュー

3D地球を読み込み中...

About Praetorian SDA-618

Praetorian SDA-618 (NORAD 65581) is a satellite launched Sep 10, 2025 by SDA of US. It operates in LEO, CIRCULAR, POLAR orbit with a mass of 300.00 kg.

次回通過

Passes for default location (London). Set your location on the main map for personalized predictions.

高度履歴

Loading altitude history...

軌道要素

1 65581U 25203S 26195.51473951 .00000116 00000-0 92869-4 0 9991
2 65581 81.3031 345.1676 0010923 118.5632 241.6625 13.84226379 42496
Epoch: Jul 14, 2026 • Age: 11 hours

現在のステータス

高度 955.5 km
遠地点 / 近地点 N/A
速度 7.38 km/s
衛星直下点 73.58°N, 96.1°E
打ち上げ日 Sep 10, 2025
運用期間 0.8 years
タイプ other

技術仕様

分類 Payload
質量 300.00 kg
乾燥質量 300.00 kg
総質量 300.00 kg
長さ 1.00 m
直径 0.60 m
スパン 2.00 m
形状 Box + panels
製造者 YORKSS
バスタイプ S-Class
フェーズステータス In Orbit
所有者/国 SDA/US

Most Searched